Location: Mactaquac Provincial Park
(45.9573°N, 66.8897°W)
Time: 03:12:42
(UTC-03:00)

Cosmos 1867 - Visible Passes

Search period start: 03 July 2015 00:00
Search period end: 13 July 2015 00:00
Orbit: 776 x 800 km, 65.0° (Epoch: 01 July)

Date Brightness Start Highest point End Pass type
(mag) Time Alt. Az. Time Alt. Az. Time Alt. Az.
03 Jul 5.2 22:19:30 10° NW 22:24:10 28° WSW 22:28:42 10° S visible
04 Jul 4.8 21:47:37 10° NW 21:52:40 38° WSW 21:57:37 10° S visible
06 Jul 6.4 22:31:39 10° W 22:32:17 10° WSW 22:32:34 10° WSW visible
07 Jul 6.0 21:57:52 10° WNW 22:00:52 15° WSW 22:03:36 10° SW visible
